Weather History for Asheville, NC

Change the Weather History Date:

Friday, April 4, 2014

  Actual Average Record
Temperature  
Mean Temperature 64 °F 52 °F  
Max Temperature 74 °F 65 °F 83 °F (1978)
Min Temperature 54 °F 40 °F 22 °F (1936)
Degree Days  
Heating Degree Days 1 13  
Month to date heating degree days 10 54  
Since 1 July heating degree days 3958 3826  
Cooling Degree Days 0 0  
Month to date cooling degree days 0 0  
Year to date cooling degree days 0 1  
Growing Degree Days 14 (Base 50)    
Moisture  
Dew Point 50 °F    
Average Humidity 59    
Maximum Humidity 80    
Minimum Humidity 38    
Precipitation  
Precipitation 0.01 in 0.11 in 3.39 in (1957)
Month to date precipitation 0.01 0.46  
Year to date precipitation 7.66 11.72  
Snow  
Snow 0.00 in 0.00 in 2.50 in (1891)
Month to date snowfall 0.0 0.2  
Since 1 July snowfall 9.8 9.4  
Snow Depth 0.00 in    
Sea Level Pressure  
Sea Level Pressure 29.84 in    
Wind  
Wind Speed 8 mph (South)    
Max Wind Speed 25 mph    
Max Gust Speed 39 mph    
Visibility 10 miles    
Events Rain    
T = Trace of Precipitation, MM = Missing Value Source: NWS Daily Summary

Daily Weather History Graph

Daily Weather History Graph

Search for Another Location

Airport:

Trip Planner

Search our weather history database for the weather conditions in past years. The results will help you decide how hot, cold, wet, or windy it might be!

Date:

Astronomy

Apr. 04, 2014 Rise Set
Actual Time 7:12 AM EDT 7:54 PM EDT
Civil Twilight 6:46 AM EDT 8:19 PM EDT
Nautical Twilight 6:16 AM EDT 8:50 PM EDT
Astronomical Twilight 5:45 AM EDT 9:21 PM EDT
Moon 10:36 AM EDT (4/4) 12:04 AM EDT (4/4)
Length of Visible Light 13h 33m
Length of Day
12h 41m
Waxing Crescent, 25% of the Moon is Illuminated
Apr 4
Waxing Crescent
Apr 7
First Quarter
Apr 15
Full
Apr 22
Last Quarter
Apr 29
New

Hourly Weather History & Observations

Time (EDT) Temp. Dew Point Humidity Pressure Visibility Wind Dir Wind Speed Gust Speed Precip Events Conditions
12:54 AM 62.1 °F 50.0 °F 65% 29.89 in 10.0 mi ESE 4.6 mph - N/A   Clear
1:54 AM 63.0 °F 50.0 °F 63% 29.89 in 10.0 mi South 4.6 mph - N/A   Clear
2:54 AM 57.0 °F 50.0 °F 77% 29.88 in 10.0 mi Calm Calm - N/A   Clear
3:54 AM 60.1 °F 50.0 °F 69% 29.85 in 10.0 mi SE 3.5 mph - N/A   Clear
4:54 AM 57.0 °F 48.9 °F 74% 29.84 in 10.0 mi ESE 3.5 mph - N/A   Clear
5:54 AM 57.0 °F 50.0 °F 77% 29.81 in 10.0 mi South 8.1 mph - N/A   Clear
6:54 AM 55.0 °F 48.9 °F 80% 29.83 in 10.0 mi Calm Calm - N/A   Clear
7:54 AM 57.9 °F 51.1 °F 78% 29.81 in 10.0 mi SSE 5.8 mph - N/A   Clear
8:54 AM 60.1 °F 52.0 °F 75% 29.81 in 10.0 mi SSE 5.8 mph - N/A   Clear
9:54 AM 62.1 °F 53.1 °F 72% 29.82 in 10.0 mi South 10.4 mph - N/A   Clear
10:54 AM 64.0 °F 53.1 °F 67% 29.84 in 10.0 mi South 12.7 mph - N/A   Clear
11:54 AM 66.0 °F 55.0 °F 68% 29.86 in 10.0 mi SSW 12.7 mph - N/A   Clear
12:45 PM 62.1 °F 52.0 °F 70% 29.94 in 10.0 mi North 17.3 mph 24.2 mph 0.00 in Rain Light Rain
12:54 PM 60.1 °F 54.0 °F 80% 29.88 in 7.0 mi North 9.2 mph 24.2 mph 0.01 in Rain Light Rain
1:54 PM 64.9 °F 55.0 °F 70% 29.85 in 10.0 mi Variable 3.5 mph - 0.00 in   Overcast
2:54 PM 73.0 °F 50.0 °F 44% 29.78 in 10.0 mi South 16.1 mph 20.7 mph N/A   Mostly Cloudy
3:54 PM 72.0 °F 45.0 °F 38% 29.75 in 10.0 mi South 23.0 mph 38.0 mph N/A   Partly Cloudy
4:54 PM 71.1 °F 48.0 °F 44% 29.78 in 10.0 mi SW 15.0 mph 23.0 mph N/A   Clear
5:54 PM 69.1 °F 48.9 °F 49% 29.80 in 10.0 mi SSW 17.3 mph 23.0 mph N/A   Clear
6:54 PM 68.0 °F 48.9 °F 50% 29.81 in 10.0 mi South 8.1 mph - N/A   Mostly Cloudy
7:54 PM 68.0 °F 44.1 °F 42% 29.81 in 10.0 mi WSW 8.1 mph 19.6 mph N/A   Partly Cloudy
8:54 PM 63.0 °F 45.0 °F 52% 29.83 in 10.0 mi NW 8.1 mph - N/A   Partly Cloudy
9:54 PM 63.0 °F 45.0 °F 52% 29.84 in 10.0 mi NW 6.9 mph - N/A   Clear
10:54 PM 60.1 °F 45.0 °F 57% 29.87 in 10.0 mi WNW 4.6 mph - N/A   Partly Cloudy
11:54 PM 57.9 °F 43.0 °F 58% 29.88 in 10.0 mi Variable 3.5 mph - N/A   Mostly Cloudy